Location: Cantaing
(50.1487°N, 3.1675°E)
Time: 22:54:28
(UTC+00:00)

Cosmos 2082 Rocket - Pass Details

Date: 15 April 2026
Orbit: 831 x 853 km, 71.0° (Epoch: 19 May)

Event Time Altitude Azimuth Distance (km) Brightness Sun altitude
Exits shadow 01:00:21 19° 114° (ESE) 1,943 4.0 -28.1°
Maximum altitude 01:01:22 19° 100° (E) 1,900 4.1 -28.0°
Drops below altitude 10° 01:05:18 10° 56° (NE) 2,490 5.3 -27.8°
Sets 01:08:24 0° 40° (NE) 3,432 6.5 -27.6°
